Regional Weather Roundup
Issued by NWS Grand Forks, ND

Home | Current Version | Previous Version | Text Only | Print | Product List | Glossary Off
Versions: 1 2 3 4 5 6 7 8 9 10 11 12 13 14 15 16 17 18 19 20 21 22 23 24 25 26 27 28 29 30 31 32 33 34 35 36 37 38 39 40 41 42 43 44 45 46 47 48 49 50

000
ASUS43 KFGF 262331
RWRFGF
PRAIRIE TO PINES  WEATHER ROUNDUP
NATIONAL WEATHER SERVICE EASTERN NORTH DAKOTA/GRAND FORKS ND
600 PM CDT MON SEP 26 2016

 **SATELLITE DATA USED TO AUGMENT SKY COVER AT AUTOMATED STATIONS**
 *****  WEATHER ACROSS EASTERN NORTH DAKOTA  *****

CITY           SKY/WX    TMP DP  RH WIND       PRES   REMARKS
GRAND FORKS    MOSUNNY   63  40  42 NW16G28   29.92S
GRAND FRKS AFB SUNNY     63  35  35 N18G28    29.93S
DEVILS LAKE    SUNNY     63  29  27 NW24G31   29.98F
FARGO          SUNNY     66  28  24 NW29      29.93S
WAHPETON ARPT  CLEAR     63  23  22 NW18G26   29.95S
$$

 ***** WEATHER ACROSS CENTRAL AND WESTERN NORTH DAKOTA  *****

CITY           SKY/WX    TMP DP  RH WIND       PRES   REMARKS
BISMARCK       SUNNY     68  35  29 NW16G23   30.10F
MINOT          SUNNY     65  35  33 NW17G28   30.07F
JAMESTOWN      SUNNY     63  33  32 NW24G32   30.01F
MINOT AFB      SUNNY     65  34  31 NW16G25   30.05F
GARRISON         N/A     66  34  30 N16G24    30.08F
WILLISTON      SUNNY     70  37  29 NW13      30.12F
DICKINSON      SUNNY     64  35  34 NW10      30.14F
HETTINGER      SUNNY     67  38  34 NW15G23   30.18S
$$

 *****  OTHER AIRPORT OBSERVATIONS IN OUR AREA  *****

CITY           SKY/WX    TMP DP  RH WIND       PRES   REMARKS
WALHALLA       FAIR      61  57  88 NW18G25   29.93S
GRAFTON AIRPOR FAIR      61  41  48 NW12G20   29.94R
VALLEY CITY AR FAIR      63  32  31 NW23G35   30.00S
CANDO          FAIR      63  27  25 NW20G32   30.01S
CAVALIER APRT  FAIR      63  39  42 NW10G23   29.92S
GWINNER        FAIR      66  32  28 NW21G29   30.00S
SHEYENNE NWR     N/A     67  27  22 NW17      29.95S
ROLLA          FAIR      59  27  29 NW18G29   30.01S
 ***** THE ABOVE OBSERVATIONS ARE NON NWS ARE NOT QUALITY
       CONTROLLED AND MAY MIS-REPORT RAIN FOR SNOW...
$$

  *****  WEATHER ACROSS NORTHERN MINNESOTA  *****

CITY           SKY/WX    TMP DP  RH WIND       PRES   REMARKS
FLAG ISLAND    CLOUDY    52  48  87 NW30G36   29.77R
WARROAD        CLOUDY    54  46  76 NW20G26   29.82R
ROSEAU         CLOUDY    55  46  71 NW15G24   29.85S
HALLOCK        SUNNY     57  46  67 N13G20    29.91S
THF RVR FALLS  SUNNY     56  43  61 NW21G33   29.91R
BAUDETTE       CLOUDY    52  45  77 W22G28    29.77R
WASKISH        CLOUDY    55  46  71 W20G31    29.81S
CROOKSTON      SUNNY     61  43  51 NW15G23   29.92S
STEPHEN NDAWN    N/A     57  46  67 N14         N/A
GREENBUSH NDAW   N/A     54  45  71 NW23        N/A
$$
  *****  WEATHER ACROSS CENTRAL AND WEST MINNESOTA  *****

CITY           SKY/WX    TMP DP  RH WIND       PRES   REMARKS
FOSSTON        PTSUNNY   57  39  51 NW21G30   29.90S
BEMIDJI        CLOUDY    54  42  65 NW16G23   29.86S
PARK RAPIDS    MOSUNNY   60  38  43 NW28G35   29.87S
ELBOW LAKE     FAIR      63  30  29 W20G33    29.94S
WADENA         SUNNY     59  37  44 NW14G25   29.89S
DETROIT LAKES  SUNNY     59  37  44 NW17G24   29.93S
MOORHEAD       SUNNY     64  28  25 NW24G30   29.94R
FERGUS FALLS   SUNNY     63  34  34 NW17G28   29.95R
MORRIS MN      SUNNY     66  28  24 NW23G29   29.94S
STAPLES        SUNNY     57  34  41 NW21G29   29.88S
$$
  *****  WEATHER ELSEWHERE ACROSS MINNESOTA  *****

CITY           SKY/WX    TMP DP  RH WIND       PRES   REMARKS
DULUTH         LGT RAIN  52  45  77 NW22G29   29.74R
INTRNTL FALLS  LGT RAIN  50  48  93 W15G25    29.70R
ELY            RAIN      48  46  93 W13G25    29.65S
CLOQUET        RAIN      54  43  66 W15G32    29.77R
WHEATON        SUNNY     68  34  28 NW21G29   29.97S
BRAINERD       PTSUNNY   59  39  47 NW18G24   29.86S
HIBBING        CLOUDY    50  44  80 W10G24    29.74S
ALEXANDRIA     SUNNY     63  31  30 NW22G35   29.93S
SAINT CLOUD    SUNNY     63  35  35 W17G33    29.88S
MINNEAPOLIS    MOSUNNY   65  32  29 NW25G32   29.87F
$$

  *****  WEATHER ACROSS SOUTH DAKOTA  *****

CITY           SKY/WX    TMP DP  RH WIND       PRES   REMARKS
SIOUX FALLS    SUNNY     70  35  27 NW18G24   30.04S
BROOKINGS      SUNNY     66  30  26 NW18      30.02S
WATERTOWN      SUNNY     65  34  31 NW16G24   30.02F
HURON          SUNNY     71  31  22 N17G24    30.05S
SISSETON         N/A     68  27  21 NW23G35   29.96F
ABERDEEN       SUNNY     69  29  22 NW26G32   30.04F
MITCHELL       SUNNY     73  32  22 NW16G23   30.07F
PIERRE         SUNNY     73  38  27 NW15      30.08F
MOBRIDGE       SUNNY     71  32  23 NW16G23   30.07F
RAPID CITY     SUNNY     71  39  31 N20       30.20F
$$

  *****  SOME WEATHER IN NEARBY STATES *****

CITY           SKY/WX    TMP DP  RH WIND       PRES   REMARKS
GLASGOW MT     SUNNY     70  44  39 SW9       30.13F
GREAT FALLS MT CLOUDY    76  41  28 SW17      30.15F
CHEYENNE WY    SUNNY     72  34  24 N16       30.32F
SCOTTSBLUFF NE SUNNY     76  41  28 N9        30.24F
OMAHA NE       SUNNY     76  39  26 W13       30.07F
DES MOINES IA  MOSUNNY   72  38  29 W14G25    30.03F
DAVENPORT IA   CLEAR     69  34  27 W17G25    29.98F
CHICAGO IL     PTCLDY    67  32  27 W20G29    29.92S
EAU CLAIRE WI  CLEAR     61  38  42 W16       29.84S
LA CROSSE WI   CLEAR     67  34  29 NW14      29.87S
$$

  *****  SOME NATIONAL WEATHER *****

CITY           SKY/WX    TMP DP  RH WIND       PRES   REMARKS
LA GUARDIA NY  CLOUDY    69  49  48 S13       30.05F
RALEIGH NC     MOCLDY    74  66  76 S6        30.04S
ATLANTA GA     CLOUDY    85  62  46 S5        30.01R
NEW ORLEANS LA CLOUDY    89  72  56 N10G20    29.93R HX  96
OKLAHOMA CITY  PTSUNNY   73  33  23 N14       30.18F
ALBUQUERQUE NM MOSUNNY   73  28  18 E15       30.32F
SALT LAKE CITY MOSUNNY   72  50  45 NW9       30.29F
LOS ANGELES CA MOSUNNY   96  34  11 W17       29.84F HX  91
BOISE ID       SUNNY     84  37  18 S5        30.18F
SEATTLE WA     MOSUNNY   76  55  48 W5        30.04S
$$

*** WEATHER ACROSS MANITOBA...SASKATCHEWAN AND ONTARIO ***
                ***ONTARIO***

CITY           SKY/WX    TMP DP  RH WIND       PRES   REMARKS
GERALDTON      MOCLDY    54  50  87 SE5       29.36R
THUNDER BAY    LGT RAIN  52  50  93 W14G21    29.45R
SIOUX LOOKOUT  LGT RAIN  48  46  93 NW13G24   29.53R
TORONTO        MOCLDY    59  54  82 W7        29.84R
BIG TROUT LK   LGT RAIN  52  50  93 N8        29.49  FOG
PICKLE LAKE    LGT RAIN  52  52 100 NW6       29.42R FOG
DRYDEN         RAIN      48  48 100 N6        29.60R
KENORA         LGT RAIN  50  48  93 NW14G26   29.71S FOG
$$
                *** MANITOBA***

CITY           SKY/WX    TMP DP  RH WIND       PRES   REMARKS
BRANDON        MOSUNNY   61  30  31 NW22G32   29.99F
DAUPHIN        SUNNY     63  34  34 NW15G22   29.97S
ISLAND LAKE    LGT RAIN  50  48  93 N12G23    29.74R
PILOT MOUND      N/A     59  28  31 NW21G32     N/A
THE PAS        MOSUNNY   57  43  58 NW12      29.99F
THOMPSON       CLOUDY    48  39  71 N10G28    29.91R
WINNIPEG       MOSUNNY   55  45  67 N23G29    29.92R
LYNN LAKE      MOSUNNY   48  39  71 N8        30.00S
CHURCHILL      LGT RAIN  46  43  87 N25G33    29.81R
GILLAM         CLOUDY    48  43  81 N26G32    29.79R
$$
                ***SASKATCHEWAN***

CITY           SKY/WX    TMP DP  RH WIND       PRES   REMARKS
ESTEVAN        MOSUNNY   66  34  30 NW16      30.10F
KINDERSLEY     MOSUNNY   70  41  35 S12       30.03F
LLOYDMINSTER   MOSUNNY   72  41  33 S12G18    29.97F
PRINCE ALBERT  MOSUNNY   66  41  39 W3        30.02F
REGINA         MOSUNNY   64  37  36 NW12      30.09F
YORKTON        SUNNY     61  36  39 NW12G17   30.05F
N. BATTLEFORD  SUNNY     72  37  28 S9        30.03F
LA RONGE       MOSUNNY   61  41  48 SE8       30.01F
SASKATOON      MOSUNNY   68  37  32 W2        30.06F
SWIFT CURRENT  SUNNY     70  39  32 SW7       30.08F
$$
NOTE: THESE ARE AUTOMATED STATIONS WITH LIMITED QUALITY CONTROL
      "FAIR" INDICATES FEW OR NO CLOUDS BELOW 12,000 FEET WITH NO
      SIGNIFICANT WEATHER AND/OR OBSTRUCTIONS TO VISIBILITY.
      SKY/WX - SKY CONDITION AND SIGNIFICANT WEATHER.
      TMP - AIR TEMPERATURE.    DP   - DEWPOINT TEMPERATURE.
      RH  - RELATIVE HUMIDITY.  PRES - PRESSURE.
      HX  - HEAT INDEX.         WCI  - WIND CHILL INDEX.
$



USA.gov is the U.S. government's official web portal to all federal, state and local government web resources and services.